SENTINEL-2C

Last updated on Tue Oct 08 2024 00:02:25 GMT+0000 (Coordinated Universal Time)

1 60989U 24157A 24281.16430577 .00001001 00000+0 37100-3 0 9996 2 60989 98.5671 353.8530 0002324 172.3873 187.7347 14.34450785 4607
UTC large
Height (km)
Speed (km/s)
/
Latitude / Longitude
Inclination (degrees)
Orbital Period (minutes)
Azimuth
Elevation
Range (km)
Doppler Factor

Next 0 passes for location: London (51.5072 / 0.1276)

Sorry there are no passes over London.